Wind_Speed
34 35 35 38 42 44 46 48 47 46 46 46 49 49 48 47 46 44 43 42 43 42 42 42 41 39 37 37 37 36 36 37 37 36 36 37 39 41 41 42 43 45 46
32 34 35 37 40 43 46 47 48 46 45 46 46 47 47 46 45 44 43 43 41 40 40 40 39 37 36 36 36 35 36 36 36 36 36 37 39 40 41 42 43 45 46
32 33 35 36 38 41 45 47 47 45 44 46 46 46 47 46 45 44 44 43 42 41 39 39 38 36 36 36 35 35 35 36 36 36 36 37 39 40 40 41 43 44 46
31 32 34 36 37 39 43 45 44 43 43 45 46 46 46 46 45 43 43 42 41 40 38 38 37 36 36 36 35 35 35 36 36 36 36 37 38 39 40 41 42 44 45
31 32 33 35 37 39 43 45 45 42 42 43 44 44 46 46 45 42 41 41 41 39 38 37 36 36 36 36 36 35 35 35 35 36 37 37 37 38 39 40 42 43 45
31 32 33 34 36 37 40 44 45 44 43 44 42 43 45 44 43 41 40 40 40 39 38 37 36 35 36 36 36 36 35 35 36 36 36 36 37 38 39 41 43 43 43
31 33 33 34 35 35 38 41 42 42 43 44 44 43 44 44 43 41 39 40 40 39 38 37 36 36 36 36 36 35 35 35 35 34 34 35 36 37 39 40 41 41 41
31 32 33 34 35 35 36 40 39 39 40 42 44 44 43 43 41 40 40 40 40 40 38 36 36 36 35 35 34 34 34 34 33 33 33 34 36 37 38 39 39 39 39
30 31 33 34 35 35 36 36 39 39 37 39 41 42 43 43 42 42 41 41 40 40 39 37 37 36 36 35 35 34 33 32 32 33 34 35 36 37 37 37 37 37 39
30 31 32 33 34 35 35 36 37 37 36 36 38 41 42 42 42 42 42 41 40 39 39 37 36 35 35 34 34 34 33 33 33 34 34 35 36 36 35 36 36 36 37
29 30 31 31 32 34 34 35 36 37 37 36 37 40 41 41 42 42 43 41 39 39 38 36 35 35 34 33 33 33 33 34 34 33 34 35 35 35 34 35 34 35 35
29 29 30 31 32 33 33 34 35 36 38 38 38 38 39 40 41 41 40 39 39 38 37 36 35 34 33 33 33 33 33 33 33 34 34 34 34 33 32 32 33 33 34
27 28 29 30 31 32 32 32 34 36 37 38 37 37 37 38 39 39 38 38 37 37 36 34 34 34 33 32 31 31 31 31 32 32 32 32 33 32 31 31 32 34 35
26 27 28 28 30 31 31 31 32 35 37 38 37 36 35 36 36 36 36 36 35 36 36 35 35 34 33 32 31 31 31 31 31 30 30 30 30 29 30 31 32 33 34
27 28 28 28 29 30 31 32 31 33 35 37 37 36 36 35 36 36 36 36 35 35 35 34 34 34 32 32 32 33 32 31 30 30 30 29 28 28 29 30 31 31 32
27 28 29 29 29 30 32 32 32 33 35 36 37 36 36 36 36 36 36 35 35 34 35 34 33 34 33 32 32 32 31 29 29 30 29 27 27 27 29 30 30 30 31
28 28 29 30 30 31 32 32 32 33 34 35 36 36 36 36 36 36 35 35 34 33 33 33 32 32 32 31 30 30 29 29 29 28 27 26 26 27 28 29 29 29 30
27 28 29 29 29 30 31 32 33 34 35 35 35 35 35 35 35 35 35 35 34 34 32 32 31 31 30 30 29 29 28 28 27 26 25 25 25 26 27 27 27 27 28
27 27 28 29 30 30 30 30 32 33 34 35 35 36 35 34 33 33 33 33 33 32 31 30 30 29 28 28 28 28 27 26 25 24 23 23 24 25 25 25 26 27 27
26 27 28 28 29 30 30 30 31 32 33 34 34 35 35 34 33 32 32 32 32 32 31 30 29 28 27 27 26 26 25 25 24 23 23 22 23 23 24 24 24 25 25
27 27 27 27 28 29 30 30 30 32 33 34 34 34 33 33 32 32 32 32 32 31 30 30 28 26 26 25 24 24 23 23 23 21 20 20 21 22 22 22 22 22 22
27 27 27 26 27 28 29 30 30 31 32 33 33 33 33 32 31 31 31 31 31 30 30 30 28 27 25 24 23 22 21 21 21 20 20 20 20 20 20 20 20 20 19
26 26 26 26 26 27 27 29 30 31 32 32 32 32 32 32 31 30 30 30 30 30 28 27 27 26 24 23 21 20 19 19 19 19 19 19 19 18 18 18 18 18 19
25 25 26 25 25 26 26 28 29 30 31 31 31 31 31 31 31 30 29 29 30 29 28 26 25 24 23 21 20 19 19 18 18 19 18 18 17 16 17 17 17 17 18
25 25 25 25 24 25 26 28 29 29 29 29 29 30 29 29 29 30 29 29 29 28 27 27 25 24 22 21 19 19 18 17 17 17 17 15 14 14 14 15 15 16 17
24 24 24 24 24 25 26 27 28 29 29 29 29 30 30 29 28 28 29 28 28 27 26 26 24 23 22 20 19 18 17 16 15 15 14 14 14 13 13 14 15 16 16
Wind_Direction
237 232 232 228 229 227 226 226 224 224 226 226 227 228 229 230 232 234 238 241 242 245 249 252 253 255 259 263 267 271 274 278 281 284 288 291 294 297 301 303 306 308 311
237 233 230 227 227 226 225 224 222 223 226 227 228 229 229 229 232 234 237 239 242 244 248 252 254 256 260 264 267 271 274 278 281 284 288 292 294 298 301 303 305 309 312
239 236 231 229 229 227 224 223 223 225 227 228 228 230 229 229 232 234 237 239 242 245 247 251 253 256 260 264 267 270 273 276 280 284 289 292 295 297 300 304 307 310 313
240 237 234 232 231 229 225 225 225 225 227 229 228 229 228 229 232 234 237 239 242 244 247 250 253 257 260 263 266 269 273 276 280 284 289 292 295 299 302 305 308 309 312
240 237 237 235 233 232 229 226 225 226 227 228 227 229 230 231 232 235 238 241 242 244 247 249 252 256 260 262 265 269 273 276 280 285 289 291 295 299 302 305 307 309 312
242 240 239 237 234 233 231 228 227 227 229 228 228 230 230 231 233 236 239 242 242 244 247 248 251 255 259 263 265 268 272 276 281 285 288 291 296 299 302 305 307 309 312
244 241 239 237 234 232 229 228 228 229 229 227 226 228 230 230 232 234 237 240 242 244 246 249 252 256 258 262 265 268 272 277 281 284 288 292 296 299 301 304 307 310 313
244 241 239 237 234 231 229 230 228 229 229 228 227 227 228 229 232 235 237 239 242 243 245 249 252 255 258 261 264 268 273 276 279 284 289 293 296 299 302 305 307 310 313
245 242 240 237 235 233 231 231 230 229 229 230 230 229 229 230 233 237 238 239 242 243 244 248 252 254 257 260 263 268 272 275 279 284 290 293 296 299 303 305 308 311 313
244 243 242 240 236 233 232 231 232 230 230 232 232 231 231 231 234 237 238 240 242 244 245 248 249 252 256 259 263 267 270 274 278 284 288 292 296 298 301 304 307 310 312
243 243 241 238 237 233 231 232 232 232 232 233 233 233 232 233 235 237 238 239 242 244 246 247 249 252 255 259 263 268 270 274 278 282 286 290 294 296 300 304 307 310 311
243 243 243 240 239 236 233 232 233 232 232 232 233 232 233 234 236 236 237 239 241 242 244 246 249 251 255 259 263 267 269 273 277 281 286 290 293 295 299 303 306 309 311
245 244 243 242 241 240 236 234 233 232 232 231 231 231 232 231 232 235 236 237 238 239 241 243 246 249 253 258 263 266 270 274 278 282 286 289 291 293 297 301 306 309 311
247 245 244 244 243 240 237 235 234 233 233 230 228 229 229 231 232 233 234 235 238 240 240 243 247 250 254 258 262 266 271 275 279 282 285 288 290 291 296 301 305 308 311
247 246 244 244 242 240 237 236 235 232 232 232 231 231 231 232 231 231 233 234 237 241 241 243 248 251 254 256 261 265 269 273 277 282 284 287 289 291 296 300 304 307 310
247 246 244 243 241 240 238 238 235 232 231 232 232 233 233 232 230 230 231 234 236 240 242 244 248 251 253 257 261 263 266 271 277 282 283 286 289 291 294 297 301 305 310
248 246 244 243 242 241 240 239 235 232 230 230 230 229 230 231 231 230 231 232 235 239 242 245 249 251 253 256 258 262 265 271 276 279 281 283 286 289 293 296 300 303 309
249 247 244 242 241 239 238 238 236 232 229 227 226 226 228 228 228 228 231 233 236 239 241 243 246 248 252 254 257 260 264 270 274 277 279 281 284 289 293 298 301 304 309
251 249 246 243 241 238 237 239 236 231 228 224 224 225 225 225 227 228 231 232 234 236 237 241 245 246 249 253 256 259 263 267 271 274 275 278 283 287 291 296 300 305 310
251 250 247 243 241 238 236 236 234 230 227 224 222 222 223 225 227 229 230 231 232 233 236 239 241 244 246 250 254 259 262 263 267 269 274 277 282 286 290 294 299 305 311
251 250 247 244 240 237 235 234 231 228 224 221 220 221 223 225 226 229 230 230 230 231 233 235 238 242 246 249 253 256 260 264 266 268 271 275 281 287 291 293 298 306 311
249 247 245 242 239 235 232 230 227 225 221 220 220 220 223 225 227 228 229 229 229 230 232 232 236 240 244 247 251 254 260 265 265 265 267 273 281 287 290 293 299 306 312
247 245 243 240 236 232 230 227 224 222 220 220 221 222 223 226 226 227 228 227 227 229 231 232 234 237 240 243 249 253 257 260 261 263 264 269 275 281 287 292 299 304 311
243 241 240 237 233 229 226 225 222 220 219 219 220 221 222 224 224 224 225 226 226 227 229 230 232 233 234 238 244 248 252 255 259 262 263 267 272 277 284 291 298 305 311
239 237 235 232 230 228 226 224 221 219 217 217 218 219 221 223 222 221 222 224 225 224 224 224 226 228 231 235 239 243 249 254 259 259 260 263 268 275 282 291 299 307 313
237 235 234 232 230 227 224 223 219 215 216 216 217 219 220 220 218 218 219 221 221 220 221 223 224 226 228 231 236 241 245 249 254 256 258 261 265 272 280 291 300 306 313
Height
5566 5569 5573 5578 5584 5590 5597 5605 5612 5619 5627 5634 5641 5648 5654 5661 5667 5673 5679 5685 5689 5693 5696 5699 5702 5703 5705 5706 5707 5707 5707 5706 5705 5703 5701 5698 5694 5691 5686 5682 5676 5671 5664
5558 5562 5566 5571 5576 5582 5590 5597 5604 5610 5617 5625 5632 5639 5645 5651 5658 5665 5671 5675 5679 5684 5687 5690 5693 5695 5697 5698 5699 5699 5698 5697 5696 5695 5693 5690 5686 5682 5678 5673 5668 5662 5656
5551 5554 5559 5564 5569 5575 5582 5588 5595 5602 5609 5615 5622 5629 5636 5643 5650 5656 5661 5666 5671 5675 5678 5681 5684 5686 5688 5689 5690 5690 5690 5689 5687 5686 5684 5681 5678 5674 5670 5664 5659 5653 5647
5545 5548 5552 5557 5562 5567 5574 5580 5586 5594 5600 5607 5614 5621 5627 5634 5641 5647 5652 5657 5661 5665 5669 5672 5675 5678 5679 5680 5681 5681 5681 5680 5679 5678 5676 5673 5670 5666 5661 5656 5650 5645 5638
5539 5541 5545 5549 5554 5559 5565 5571 5578 5585 5591 5598 5605 5612 5619 5625 5632 5638 5643 5648 5652 5656 5660 5664 5667 5669 5670 5671 5672 5673 5672 5672 5671 5669 5667 5665 5661 5657 5653 5648 5642 5636 5629
5532 5535 5538 5541 5546 5552 5557 5563 5569 5576 5582 5589 5595 5603 5610 5616 5623 5629 5634 5639 5643 5648 5651 5654 5657 5659 5661 5662 5663 5664 5664 5663 5662 5661 5659 5656 5653 5649 5644 5639 5634 5628 5622
5525 5528 5531 5534 5539 5544 5549 5555 5561 5567 5573 5580 5587 5593 5600 5607 5614 5620 5625 5629 5634 5638 5642 5645 5648 5650 5652 5654 5655 5655 5655 5655 5654 5652 5650 5648 5645 5641 5636 5631 5625 5619 5613
5518 5521 5524 5528 5532 5536 5541 5547 5553 5558 5564 5571 5578 5584 5591 5598 5605 5610 5615 5620 5624 5628 5632 5635 5639 5641 5643 5645 5646 5646 5646 5646 5646 5644 5642 5639 5636 5632 5628 5623 5617 5611 5605
5510 5513 5517 5520 5525 5529 5533 5539 5544 5550 5556 5563 5569 5575 5582 5589 5595 5601 5605 5610 5615 5619 5623 5626 5629 5632 5634 5636 5637 5637 5638 5638 5637 5635 5633 5631 5627 5623 5619 5614 5609 5604 5598
5503 5506 5509 5512 5516 5521 5525 5530 5536 5542 5548 5554 5560 5566 5573 5579 5585 5591 5596 5601 5605 5610 5614 5617 5620 5622 5625 5626 5628 5628 5629 5629 5628 5626 5625 5622 5619 5615 5611 5607 5602 5597 5591
5496 5498 5501 5504 5508 5512 5517 5522 5527 5533 5539 5545 5551 5557 5563 5569 5575 5581 5586 5591 5595 5600 5604 5608 5611 5613 5616 5617 5619 5619 5620 5620 5619 5617 5615 5613 5610 5606 5603 5599 5594 5589 5584
5488 5491 5494 5497 5500 5504 5509 5514 5519 5524 5530 5536 5542 5548 5554 5560 5565 5571 5576 5581 5585 5590 5595 5599 5602 5605 5607 5609 5610 5611 5611 5610 5610 5608 5606 5604 5602 5598 5595 5591 5587 5582 5577
5481 5483 5486 5490 5493 5497 5501 5506 5510 5516 5521 5527 5533 5539 5545 5551 5556 5561 5566 5571 5576 5581 5585 5590 5593 5596 5598 5599 5601 5601 5601 5601 5601 5599 5598 5596 5593 5591 5587 5584 5580 5575 5570
5473 5476 5479 5482 5485 5488 5492 5497 5502 5507 5513 5518 5524 5530 5536 5541 5547 5551 5556 5562 5567 5572 5576 5580 5583 5586 5588 5590 5592 5592 5592 5592 5592 5591 5589 5587 5585 5582 5580 5576 5572 5568 5563
5466 5468 5471 5474 5477 5480 5484 5488 5493 5498 5503 5509 5515 5521 5526 5532 5538 5543 5548 5554 5559 5563 5567 5570 5574 5577 5579 5581 5582 5583 5584 5584 5583 5582 5581 5579 5577 5574 5572 5569 5565 5561 5557
5458 5460 5463 5465 5469 5472 5476 5480 5484 5489 5494 5499 5505 5512 5518 5523 5528 5534 5539 5545 5550 5554 5558 5562 5565 5568 5570 5572 5573 5574 5575 5575 5575 5574 5573 5571 5569 5567 5565 5562 5558 5554 5550
5450 5452 5454 5457 5460 5463 5467 5471 5475 5480 5485 5490 5496 5502 5508 5514 5520 5525 5530 5536 5541 5545 5549 5553 5557 5559 5562 5563 5565 5566 5567 5567 5567 5566 5564 5563 5562 5560 5557 5554 5551 5548 5543
5441 5443 5445 5448 5451 5454 5458 5462 5466 5471 5477 5482 5487 5493 5499 5505 5511 5516 5522 5527 5532 5537 5541 5545 5548 5551 5553 5555 5556 5557 5558 5559 5558 5558 5557 5556 5554 5553 5550 5548 5545 5541 5537
5432 5434 5437 5439 5442 5446 5449 5453 5458 5462 5468 5473 5479 5485 5491 5497 5503 5508 5513 5519 5524 5529 5533 5536 5539 5542 5545 5547 5548 5549 5550 5551 5551 5550 5550 5549 5548 5546 5544 5541 5539 5535 5531
5424 5426 5428 5431 5434 5437 5441 5445 5449 5454 5459 5465 5471 5477 5483 5489 5495 5500 5506 5511 5516 5520 5524 5528 5531 5534 5537 5539 5540 5541 5542 5543 5543 5543 5543 5542 5541 5539 5538 5535 5532 5529 5526
5415 5417 5419 5422 5425 5429 5432 5436 5441 5445 5451 5457 5463 5469 5475 5481 5487 5493 5498 5503 5507 5512 5516 5520 5523 5526 5529 5531 5533 5534 5535 5535 5536 5536 5536 5536 5535 5533 5531 5529 5527 5524 5520
5406 5409 5411 5414 5417 5420 5424 5428 5433 5438 5443 5449 5455 5461 5467 5473 5479 5485 5490 5495 5499 5504 5508 5512 5516 5519 5522 5524 5526 5527 5528 5529 5529 5530 5530 5529 5529 5527 5525 5524 5521 5519 5516
5398 5400 5403 5406 5408 5412 5416 5420 5425 5430 5436 5442 5448 5454 5459 5465 5471 5477 5482 5487 5491 5496 5500 5504 5508 5511 5514 5517 5519 5521 5522 5523 5523 5524 5524 5523 5523 5522 5520 5519 5517 5514 5511
5389 5392 5395 5398 5401 5404 5408 5413 5417 5423 5428 5434 5440 5446 5452 5458 5463 5469 5474 5479 5484 5488 5492 5497 5501 5504 5507 5510 5513 5514 5516 5517 5517 5517 5517 5517 5517 5516 5515 5514 5512 5510 5507
5381 5384 5387 5391 5394 5398 5402 5406 5411 5416 5422 5428 5433 5439 5445 5450 5456 5461 5466 5471 5476 5481 5485 5490 5494 5497 5501 5504 5506 5508 5509 5510 5511 5511 5512 5512 5512 5511 5511 5510 5508 5506 5503
5374 5377 5380 5384 5387 5391 5395 5400 5405 5410 5416 5422 5427 5432 5438 5443 5449 5454 5459 5464 5469 5474 5478 5483 5487 5491 5494 5498 5500 5502 5503 5504 5505 5506 5506 5507 5507 5507 5506 5505 5504 5502 5499